星链-35336(STARLINK-35336)

导读 | 豆包AI

STARLINK-35336是美国太空探索技术公司SpaceX星链(Starlink)计划的一颗卫星,于2025年10月16日发射升空,归属美国(US)。作为星链星座扩容的组成部分,它旨在为全球提供低延迟、高速率的卫星互联网接入服务,进一步补充和完善星链星座的全球覆盖能力与服务容量。

基本信息
目录编号:
66006
目录名称:
STARLINK-35336
国际标识:
2025-232B
轨道中心:
EARTH
卫星名称:
星链-35336
卫星全名:
星链-35336(STARLINK-35336)
卫星状态:
在轨 (已飞行195 天)
发射日期:
2025-10-16 UTC
国别 :
美国 (US)
星等 :
--
轨道信息
数据来源 国际轨道数据
星历时间: 2026-04-28T22:34:58+0800
15小时前
查看轨道信息
半长轴: 6853.353km
偏心率: 0.0000986
轨道倾角: 53.157°
近地点辐角 75.609°
升交点赤经 231.661°
平近点角 284.502°
近地点: 474.54km
远地点: 475.892km
周期: 94.105分钟
每日圈数: 15.301998
详细信息
固有亮度:
5
最大亮度:
2.5
卫星平台:
Starlink V1.0
覆盖范围:
全球
运营商:
太空探索技术公司
运营商所在国:
美国
制造商(研发单位):
太空探索技术公司
制造商所在国:
美国
使用方式:
暂无
卫星简介
Starlink 计划是 SpaceX 推出的全球卫星互联网项目,通过发射低轨道卫星,为全球尤其是偏远地区提供高速、低延迟的互联网服务。自 2019 年起,Starlink 已部署数千颗卫星,旨在缩小全球数字鸿沟,推动互联网普及。该项目还为军事、航空等行业提供通信支持,带来广泛经济效益。
2D轨道图
3D轨道图
轨道高度分析图
轨道倾角分析图
轨道综合分析图
查看轨道综合分析图